Cloud_Cover
0 0 9 8 0 39 100 100 100 100 100 100 100 100 100 100 100 100 100 100 100 100 52 100 100 100 93 100 100 100 100 100 100 100 100 100 28 6 16 31 94 100 96
24 40 2 0 40 1 40 91 100 100 100 100 100 100 100 100 100 100 100 100 100 100 100 100 97 58 79 8 89 100 100 100 100 100 100 48 18 97 18 61 96 100 100
0 0 0 6 0 0 0 32 100 100 100 100 100 100 100 100 100 100 100 100 100 100 100 100 100 78 69 72 100 100 100 100 100 100 100 98 100 65 77 68 84 100 100
0 0 0 0 0 0 0 0 0 49 100 100 100 100 100 100 100 100 100 100 100 100 100 100 99 37 88 100 100 100 100 100 100 100 100 100 100 100 100 100 100 100 100
5 0 0 0 0 0 0 0 8 8 3 4 12 90 100 100 100 100 100 100 100 100 100 100 100 93 62 98 100 100 100 100 100 100 100 100 100 100 100 100 100 100 100
5 0 0 0 0 0 0 0 6 8 0 0 0 0 62 94 100 100 100 100 100 100 100 100 100 100 40 85 100 100 100 100 100 100 100 100 100 51 100 100 100 100 100
0 0 0 0 0 0 0 0 0 0 0 0 0 0 0 0 0 0 34 100 100 100 91 68 35 59 84 85 100 100 93 62 73 65 95 100 100 100 100 100 100 100 100
0 0 0 0 0 0 0 0 0 0 0 0 0 0 0 0 0 2 0 41 80 67 78 6 66 100 77 100 100 91 100 100 100 100 82 91 29 17 20 86 100 100 100
0 0 0 0 0 0 2 5 15 97 66 0 0 0 9 0 0 0 2 22 54 34 13 90 55 99 84 100 100 95 100 98 100 95 45 21 10 5 38 100 100 100 100
0 0 0 0 0 1 5 5 70 100 98 100 100 96 92 62 76 9 11 68 91 43 51 100 100 78 94 100 100 100 100 100 100 99 82 88 65 90 92 100 100 100 100
0 0 0 0 0 0 2 5 5 31 42 79 79 58 64 78 97 86 50 96 100 94 99 100 100 100 100 100 100 100 100 100 100 81 100 100 100 100 100 100 100 100 100
0 5 0 0 0 0 8 40 9 44 96 100 100 100 100 100 100 98 82 98 98 98 99 100 100 100 100 100 100 100 100 100 94 96 100 100 100 100 100 100 100 100 100
79 82 54 21 42 52 72 100 99 100 100 100 100 100 100 100 100 100 100 100 100 100 100 99 100 100 100 100 100 100 100 100 76 98 100 100 100 100 95 99 100 82 100
100 100 95 100 100 100 100 100 100 100 100 100 100 100 100 100 100 100 100 100 100 100 100 100 100 100 100 100 100 100 100 100 100 99 100 100 100 96 100 100 100 100 100
95 100 100 100 100 100 100 100 100 100 100 100 100 100 100 100 100 100 100 100 100 100 100 100 100 100 100 100 100 100 100 100 100 99 100 100 100 100 100 99 100 100 99
98 76 100 100 100 100 100 100 100 100 91 100 100 100 100 100 100 100 100 100 100 100 100 100 100 100 100 100 100 100 100 100 100 100 100 100 100 100 100 100 100 100 100
73 99 100 100 100 100 100 100 100 62 100 100 100 100 100 100 100 100 100 100 100 100 100 100 100 100 100 100 100 100 100 100 100 100 100 100 100 100 100 100 100 100 100
36 96 100 100 100 100 100 100 100 100 100 100 100 100 100 100 100 100 100 100 100 100 100 100 100 100 100 100 100 100 100 100 100 100 100 100 100 100 100 100 100 100 100
61 100 98 100 100 100 100 100 100 100 100 100 100 100 100 100 100 100 100 100 100 100 100 100 100 96 99 100 100 99 100 97 100 100 100 100 100 100 100 100 100 100 100
18 100 81 95 100 100 100 100 100 100 100 100 100 100 100 100 100 100 100 100 100 100 100 100 100 100 100 100 100 100 93 100 100 100 100 100 100 100 97 99 100 100 95
0 5 50 100 100 100 100 100 100 100 100 100 100 100 100 100 100 100 100 100 100 100 100 100 100 100 100 100 100 95 100 100 100 91 52 75 100 99 48 98 100 100 100
0 0 0 18 27 91 100 100 100 100 100 100 100 100 100 100 100 100 100 100 100 100 100 100 100 100 60 89 95 100 97 100 100 100 88 80 95 82 96 100 81 100 100
0 0 0 1 5 6 56 34 45 76 99 100 100 100 100 100 100 100 100 100 100 100 100 100 100 100 100 100 100 100 100 100 100 100 89 67 80 85 87 100 100 100 100
0 0 0 0 0 5 5 44 97 80 83 36 100 100 100 100 100 100 100 100 100 100 100 100 100 100 100 100 100 100 100 100 100 100 100 100 77 81 89 94 100 100 100
0 0 0 0 0 4 2 5 5 5 5 5 5 56 100 100 100 100 100 100 100 100 100 100 100 100 100 100 100 100 100 100 100 100 100 100 100 90 73 70 88 100 100
5 5 2 1 5 0 0 0 0 2 5 4 12 11 47 49 100 100 100 100 100 100 100 98 97 100 100 100 100 100 100 100 100 100 99 99 99 98 84 100 66 20 22